Zurück zum Katalog

TOMORROW-S11

AktivWetterSSO
NORAD 67399·PAYLOAD·🇺🇸 United States

Gestartet Jan 11, 2026 von Vandenberg Space Force Base

Loading…

Nächste Überflüge (nächste 24 Stunden)

TLE

AktuellSource: Space-Track

Epoche: Sep 14, 2026, 07:16 UTC

1 67399U 26004AN  26257.30287412  .00006555  00000-0  30513-3 0  9991
2 67399  97.4624 255.5520 0008380  44.6686 315.5223 15.20235762 37302

Verfolge TOMORROW-S11 in Echtzeit mit AllMySat

Download on the App Store